This is the latest recevied weather packets stored in our database for station/object HA5CD-6. If no packets are shown the sender has not sent any weather packets the latest 10 day(s).
| Time | Temp. | Humidity | Pressure | Rain* | Wind** | Luminosity | Snow |
|---|---|---|---|---|---|---|---|
| 1777924353 | 18.89° C | 33% | 992 hPa | - | - | - | - |
| 1777923746 | 18.89° C | 33% | 992 hPa | - | - | - | - |
| 1777922543 | 18.89° C | 34% | 992 hPa | - | - | - | - |
| 1777921943 | 18.89° C | 34% | 992 hPa | - | - | - | - |
| 1777921343 | 19.44° C | 33% | 992 hPa | - | - | - | - |
| 1777920743 | 19.44° C | 33% | 992 hPa | - | - | - | - |
| 1777920142 | 19.44° C | 33% | 992 hPa | - | - | - | - |
| 1777919542 | 20° C | 32% | 992 hPa | - | - | - | - |
| 1777918942 | 20° C | 32% | 992 hPa | - | - | - | - |
| 1777918343 | 20.56° C | 31% | 992 hPa | - | - | - | - |
| 1777917742 | 21.67° C | 29% | 992 hPa | - | - | - | - |
| 1777916036 | 23.33° C | 25% | 992 hPa | - | - | - | - |
| 1777915371 | 23.89° C | 25% | 992 hPa | - | - | - | - |
| 1777914779 | 25° C | 23% | 992 hPa | - | - | - | - |
| 1777913550 | 29.44° C | 18% | 992 hPa | - | - | - | - |
| 1777912949 | 29.44° C | 18% | 992 hPa | - | - | - | - |
| 1777909341 | 28.89° C | 18% | 992 hPa | - | - | - | - |
| 1777908757 | 31.67° C | 16% | 992 hPa | - | - | - | - |
| 1777906942 | 32.22° C | 15% | 992 hPa | - | - | - | - |
| 1777906348 | 31.67° C | 16% | 992 hPa | - | - | - | - |
| 1777905234 | 31.11° C | 15% | 992 hPa | - | - | - | - |
| 1777904540 | 32.22° C | 15% | 992 hPa | - | - | - | - |
| 1777903940 | 31.67° C | 14% | 992 hPa | - | - | - | - |
| 1777903341 | 32.22° C | 16% | 992 hPa | - | - | - | - |
| 1777902817 | 31.67° C | 14% | 993 hPa | - | - | - | - |
* Rain since midnight (hover to see other rain measurements)
** Current wind speed in m/s (hover to see current wind gust speed)